This demonstration page uses our WeatherBlox Daily Observations layout. Learn more.

Left ArrowRight Arrow

Hourly Observations for March 10, 2022

Temp ( °F °C ) Dew Point ( °F °C ) Humidity (%) Winds ( mph kmh ) Pressure ( in mb ) Visibility ( mi km ) Precip ( " mm )
12:53 am 00:53 Clear 6 -14.4 -3 -19.4 66 66 SW 21 33 30.14 1021 10 16 0.00 0.00
1:53 am 01:53 Clear 6 -14.4 -4 -20 63 63 SW 21 33 30.12 1020 10 16 0.00 0.00
2:53 am 02:53 Clear 8 -13.3 -2 -18.9 63 63 SW 25 41 30.09 1019 10 16 0.00 0.00
3:53 am 03:53 Clear 8 -13.3 -1 -18.3 66 66 SW 23 37 30.06 1018 10 16 0.00 0.00
4:53 am 04:53 Clear 9 -12.8 -1 -18.3 64 64 SW 24 39 30.05 1018 10 16 0.00 0.00
5:53 am 05:53 Partly Cloudy 10 -12.2 1 -17.2 67 67 SW 25 41 30.06 1018 10 16 0.00 0.00
6:53 am 06:53 Cloudy 12 -11.1 2 -16.7 64 64 SW 26 43 30.07 1018 10 16 0.00 0.00
7:53 am 07:53 Mostly Sunny 14 -10 3 -16.1 61 61 SW 22 35 30.10 1019 10 16 0.00 0.00
8:53 am 08:53 Cloudy 17 -8.3 7 -13.9 64 64 SW 17 28 30.14 1021 10 16 0.00 0.00
9:53 am 09:53 Cloudy 23 -5 11 -11.7 60 60 WSW 16 26 30.16 1021 10 16 0.00 0.00
10:06 am 10:06 Cloudy 25 -3.9 10 -12.2 53 53 NW 20 31 30.15 1021 10 16 0.00 0.00
10:14 am 10:14 Cloudy 25 -3.9 10 -12.2 53 53 NW 20 31 30.16 1021 10 16 0.00 0.00
10:53 am 10:53 Cloudy 24 -4.4 12 -11.1 60 60 NW 20 31 30.17 1022 10 16 0.00 0.00
11:28 am 11:28 Cloudy with Light Snow 22 -5.6 14 -10 71 71 NNW 16 26 30.22 1023 3 5 0.00 0.00
11:46 am 11:46 Cloudy 23 -5 12 -11.1 63 63 N 17 28 30.23 1024 10 16 0.00 0.00
11:53 am 11:53 Cloudy 23 -5 11 -11.7 60 60 NNW 17 28 30.21 1023 10 16 0.00 0.00
12:53 pm 12:53 Cloudy 23 -5 10 -12.2 57 57 NW 20 31 30.24 1024 10 16 0.00 0.00
1:53 pm 13:53 Cloudy 23 -5 10 -12.2 57 57 NW 21 33 30.25 1025 10 16 0.00 0.00
2:53 pm 14:53 Partly Cloudy 24 -4.4 7 -13.9 48 48 NW 26 43 30.26 1025 10 16 0.00 0.00
3:53 pm 15:53 Mostly Sunny 22 -5.6 6 -14.4 50 50 NW 22 35 30.29 1026 10 16 0.00 0.00
4:53 pm 16:53 Mostly Sunny 20 -6.7 4 -15.6 50 50 NW 16 26 30.31 1026 10 16 0.00 0.00
5:53 pm 17:53 Cloudy 17 -8.3 3 -16.1 54 54 WNW 15 24 30.32 1027 10 16 0.00 0.00
6:53 pm 18:53 Cloudy 13 -10.6 0 -17.8 56 56 NW 12 19 30.33 1027 10 16 0.00 0.00
7:53 pm 19:53 Cloudy 11 -11.7 0 -17.8 61 61 WNW 13 20 30.35 1028 10 16 0.00 0.00
8:53 pm 20:53 Cloudy 10 -12.2 -2 -18.9 58 58 WNW 8 13 30.37 1028 10 16 0.00 0.00
9:53 pm 21:53 Cloudy 9 -12.8 -2 -18.9 61 61 WNW 10 17 30.37 1029 10 16 0.00 0.00
10:53 pm 22:53 Cloudy 8 -13.3 0 -17.8 69 69 WSW 6 9 30.37 1028 10 16 0.00 0.00
11:53 pm 23:53 Cloudy 8 -13.3 -3 -19.4 60 60 NW 9 15 30.37 1029 10 16 0.00 0.00

Powered by AerisWeather